Location: Palau
(42.3086°N, 3.1507°E)
Time: 04:32:46
(UTC+00:00)

Cosmos 1867 - Pass Details

Date: 26 May 2020
Orbit: 778 x 798 km, 65.0° (Epoch: 04 July)

Event Time Altitude Azimuth Distance (km) Brightness Sun altitude
Rises 01:08:53 0° 322° (NW) 3,309 7.2 -23.6°
Reaches altitude 10° 01:11:22 10° 317° (NW) 2,375 6.3 -23.4°
Maximum altitude 01:16:38 51° 243° (WSW) 996 3.7 -23.0°
Enters shadow 01:16:44 51° 240° (WSW) 996 3.7 -23.0°
